Location: Newark
(43.6583°N, 1.6617°E)
Time: 17:40:53
(UTC+00:00)

Vanguard 1 Rocket - Pass Details

Date: 20 August 2019
Orbit: 650 x 4226 km, 34.3° (Epoch: 13 October)

Event Time Altitude Azimuth Distance (km) Brightness Sun altitude
Rises 07:33:25 0° 266° (W) 3,968 10.1 26.0°
Reaches altitude 10° 07:36:02 10° 255° (WSW) 3,328 9.9 26.5°
Maximum altitude 07:43:23 31° 197° (SSW) 2,929 10.1 27.8°
Drops below altitude 10° 07:55:50 10° 144° (SE) 5,716 12.3 30.0°
Sets 08:02:12 0° 136° (SE) 7,335 12.8 31.1°
